[[{"header":{"parameterUnit":"m.s-1","parameterCategory":1,"la1":30.2991,"la2":30.254,"lo1":-89.0895,"lo2":-89.0444,"dy":0.0017,"dx":0.0017,"nx":28,"ny":28,"refTime":"2025-12-17T09:00:00:Z","depth":0,"parameterNumber":2,"parameterNumberName":"U-component_of_WINDS"},"data":[0,0,0,0,0,0,0,0,0,0,0,0,0,0,0,0,0,0,0,0,0,0,0,0,0,0,0,0,0,0,0,0,0,0,0,0,0,0,0,0,0,0,0,0,0,0,0,0,0,0,0,0,0,0,0,0,0,0,-0.5844,-0.5845,0,-0.5944,-0.5945,-0.5947,-0.6002,-0.6002,-0.6002,-0.6002,-0.6103,-0.6106,-0.6108,0,0,0,0,0,0,0,0,0,0,0,0,0,-0.5698,-0.57,-0.5844,-0.5845,-0.5846,-0.5944,-0.5945,-0.5947,-0.6002,-0.6002,-0.6002,-0.6002,-0.6102,-0.6105,-0.6108,0,0,0,0,0,0,0,0,0,0,0,0,0,-0.5776,-0.5701,-0.5844,-0.5886,-0.589,-0.5944,-0.5946,-0.5947,-0.6002,-0.6002,-0.6002,-0.6002,-0.6101,-0.6105,-0.6109,-0.6128,0,0,-0.612,-0.6122,0,0,0,0,0,0,0,0,-0.5771,-0.5781,-0.5878,-0.5883,-0.5888,-0.5961,-0.5931,-0.6008,-0.6002,-0.5959,-0.6002,-0.6002,-0.6055,-0.6063,-0.6081,-0.6132,-0.6137,-0.6121,-0.6123,-0.6125,-0.6126,0,0,0,0,0,0,0,-0.5766,-0.5777,-0.5884,-0.5879,-0.5886,-0.5899,-0.591,-0.5946,-0.6005,-0.5963,-0.5967,-0.5978,-0.6058,-0.6077,-0.6084,-0.6138,-0.6121,-0.6124,-0.6126,-0.6128,-0.6209,-0.6209,0,0,0,0,0,0,-0.5754,-0.5772,-0.588,-0.5887,-0.5829,-0.5901,-0.5914,-0.5937,-0.6005,-0.6015,-0.5978,-0.5981,-0.6071,-0.608,-0.6088,-0.6114,-0.6125,-0.6128,-0.613,-0.621,-0.6209,-0.6209,0,0,0,0,0,0,-0.5751,-0.5763,-0.5876,-0.5831,-0.5846,-0.5904,-0.5929,-0.5939,-0.5958,-0.6016,-0.6027,-0.5987,-0.6071,-0.6082,-0.6117,-0.6118,-0.613,-0.6133,-0.621,-0.6209,-0.6209,-0.6167,0,0,0,0,0,0,-0.5746,-0.5762,-0.577,-0.5831,-0.5848,-0.5905,-0.5929,-0.5941,-0.5965,-0.5969,-0.6027,-0.6037,-0.6072,-0.6111,-0.6121,-0.6124,-0.6136,-0.621,-0.621,-0.6209,-0.6168,-0.6165,-0.6163,0,0,0,0,0,-0.5741,-0.5754,-0.577,-0.5783,-0.586,-0.5905,-0.5915,-0.5956,-0.5965,-0.5973,-0.601,-0.6035,-0.6117,-0.6115,-0.6126,-0.613,-0.621,-0.621,-0.6209,-0.617,-0.6166,-0.6163,0,0,0,0,0,0,-0.5691,-0.5762,-0.5781,-0.5814,-0.5853,-0.5914,-0.5926,-0.595,-0.5987,-0.5989,-0.6038,-0.605,-0.608,-0.6109,-0.6105,-0.6151,-0.6166,-0.6168,-0.6132,-0.6129,-0.6126,-0.6118,-0.614,0,0,0,0,0,-0.5684,-0.5715,-0.5776,-0.5799,-0.5817,-0.5868,-0.5889,-0.5917,-0.5959,-0.5975,-0.6015,-0.6054,-0.6089,-0.611,-0.6145,-0.6173,-0.6186,-0.6181,-0.6178,-0.6175,-0.6176,-0.6192,-0.6191,-0.6208,-0.6208,-0.6208,0,0,-0.567,-0.5713,-0.5729,-0.579,-0.5823,-0.5853,-0.5881,-0.5912,-0.5935,-0.598,-0.6016,-0.6046,-0.6093,-0.6124,-0.614,-0.6148,-0.6174,-0.6175,-0.6172,-0.6175,-0.6192,-0.619,-0.6189,-0.6208,-0.6208,-0.6208,0,0,-0.5659,-0.5695,-0.5718,-0.5751,-0.5801,-0.5835,-0.584,-0.5897,-0.5919,-0.5956,-0.599,-0.6017,-0.6076,-0.6108,-0.6131,-0.6132,-0.6156,-0.6142,-0.6127,-0.6142,-0.614,-0.6139,-0.6139,-0.6138,-0.6143,-0.6143,-0.6143,0,-0.5635,-0.5683,-0.5726,-0.5756,-0.5781,-0.5823,-0.5847,-0.5876,-0.5935,-0.5951,-0.596,-0.6034,-0.6069,-0.6108,-0.6108,-0.6126,-0.6133,-0.6136,-0.6137,-0.6137,-0.6136,-0.6136,-0.6136,-0.6141,-0.6141,-0.6141,-0.6142,0,-0.565,-0.5682,-0.5695,-0.5751,-0.5777,-0.5803,-0.585,-0.5872,-0.5898,-0.593,-0.5966,-0.6009,-0.6053,-0.6065,-0.609,-0.6107,-0.6111,-0.6128,-0.6143,-0.6132,-0.6133,-0.6133,-0.6138,-0.6139,-0.6139,-0.614,0,0,-0.5611,-0.5691,-0.5694,-0.572,-0.5778,-0.5804,-0.5831,-0.5875,-0.5892,-0.5931,-0.5955,-0.6004,-0.602,-0.6046,-0.6076,-0.6089,-0.6086,-0.6104,-0.6106,-0.6099,-0.6107,-0.6093,-0.6093,-0.6102,-0.6103,-0.6103,-0.6103,0,-0.5608,-0.566,-0.57,-0.5736,-0.5766,-0.5807,-0.5831,-0.5869,-0.59,-0.5929,-0.5963,-0.5996,-0.6015,-0.6032,-0.6047,-0.6083,-0.6088,-0.6084,-0.6124,-0.6125,-0.6111,-0.6093,-0.6079,-0.6077,-0.6103,-0.6103,-0.6104,0,-0.5612,-0.5649,-0.5689,-0.5744,-0.5758,-0.5778,-0.5821,-0.5849,-0.5893,-0.5914,-0.5944,-0.5975,-0.6005,-0.6017,-0.6059,-0.6055,-0.6074,-0.6094,-0.6095,-0.61,-0.6113,-0.6097,-0.6077,-0.6076,-0.6105,-0.6105,-0.6105,0,-0.5578,-0.5639,-0.567,-0.5691,-0.5756,-0.5769,-0.5797,-0.5841,-0.5864,-0.5902,-0.5917,-0.5957,-0.5979,-0.6009,-0.6049,-0.6055,-0.6087,-0.6103,-0.6105,-0.6103,-0.6109,-0.6108,-0.6091,-0.6122,-0.6122,-0.6122,-0.6122,0,-0.5571,-0.5593,-0.5656,-0.5675,-0.5701,-0.5747,-0.5771,-0.5802,-0.5841,-0.5866,-0.5904,-0.5927,-0.5978,-0.6007,-0.6039,-0.6068,-0.6078,-0.6095,-0.6103,-0.6092,-0.6089,-0.6104,-0.6105,-0.6122,-0.6122,-0.6122,-0.6122,0,-0.5537,-0.5581,-0.5617,-0.5676,-0.5691,-0.5707,-0.5757,-0.5777,-0.581,-0.5842,-0.5852,-0.5903,-0.5939,-0.5982,-0.6032,-0.6053,-0.6079,-0.6092,-0.6065,-0.6069,-0.6068,-0.6067,-0.606,-0.6061,-0.6091,-0.6091,-0.6091,0,-0.5529,-0.5548,-0.5608,-0.5628,-0.5654,-0.5686,-0.571,-0.5756,-0.5779,-0.583,-0.5843,-0.5882,-0.5916,-0.5971,-0.6013,-0.6051,-0.6064,-0.6059,-0.607,-0.6058,-0.6063,-0.6061,-0.6063,-0.6056,-0.6055,-0.6055,-0.6054,0,-0.551,-0.5531,-0.5564,-0.5605,-0.5633,-0.5668,-0.5704,-0.5717,-0.577,-0.5795,-0.5832,-0.5858,-0.5909,-0.5947,-0.599,-0.6018,-0.6045,-0.6051,-0.6053,-0.6041,-0.6024,-0.6032,-0.6056,-0.605,-0.6051,-0.6051,-0.6051,-0.6052,-0.5489,-0.5507,-0.5552,-0.5588,-0.562,-0.5652,-0.5674,-0.571,-0.5742,-0.5787,-0.5812,-0.5848,-0.5891,-0.5952,-0.5979,-0.6008,-0.6018,-0.6021,-0.6022,-0.6022,-0.6018,-0.602,-0.6016,-0.6017,-0.6017,-0.6017,-0.6017,0,-0.5471,-0.5502,-0.5535,-0.5584,-0.5612,-0.5635,-0.5676,-0.5698,-0.573,-0.5768,-0.58,-0.5843,-0.588,-0.5924,-0.5964,-0.5978,-0.5991,-0.5987,-0.5986,-0.5992,-0.6008,-0.6001,-0.5976,-0.5976,-0.5976,-0.5976,-0.5976,-0.5976,-0.5465,-0.5496,-0.5522,-0.5569,-0.56,-0.5636,-0.5658,-0.5688,-0.5718,-0.5764,-0.5795,-0.5824,-0.5864,-0.5907,-0.5942,-0.5954,-0.5966,-0.5958,-0.5974,-0.5987,-0.5991,-0.5994,-0.5989,-0.5961,-0.5961,-0.5956,-0.5956,-0.5956]},{"header":{"parameterUnit":"m.s-1","parameterCategory":1,"la1":30.2991,"la2":30.254,"lo1":-89.0895,"lo2":-89.0444,"dy":0.0017,"dx":0.0017,"nx":28,"ny":28,"refTime":"2025-12-17T09:00:00:Z","depth":0,"parameterNumber":3,"parameterNumberName":"V-component_of_WINDS"},"data":[0,0,0,0,0,0,0,0,0,0,0,0,0,0,0,0,0,0,0,0,0,0,0,0,0,0,0,0,0,0,0,0,0,0,0,0,0,0,0,0,0,0,0,0,0,0,0,0,0,0,0,0,0,0,0,0,0,0,1.6431,1.6431,0,1.6467,1.6468,1.6468,1.6468,1.6468,1.6467,1.6467,1.6501,1.6503,1.6504,0,0,0,0,0,0,0,0,0,0,0,0,0,1.6361,1.6362,1.6431,1.6431,1.6432,1.6467,1.6468,1.6468,1.6468,1.6468,1.6467,1.6467,1.6501,1.6502,1.6504,0,0,0,0,0,0,0,0,0,0,0,0,0,1.6393,1.6362,1.6431,1.6436,1.6437,1.6467,1.6468,1.6468,1.6469,1.6468,1.6467,1.6467,1.65,1.6502,1.6504,1.653,0,0,1.651,1.6511,0,0,0,0,0,0,0,0,1.6391,1.6396,1.6435,1.6436,1.6437,1.6463,1.6455,1.6489,1.6469,1.6457,1.6467,1.6466,1.6489,1.6492,1.65,1.6532,1.6533,1.651,1.6512,1.6513,1.6513,0,0,0,0,0,0,0,1.6389,1.6394,1.6445,1.6436,1.6437,1.6436,1.644,1.6462,1.6476,1.6458,1.6458,1.6462,1.6489,1.6498,1.6501,1.6534,1.651,1.6512,1.6513,1.6514,1.659,1.6591,0,0,0,0,0,0,1.6386,1.6392,1.6444,1.6446,1.6412,1.6438,1.6443,1.6455,1.6476,1.6478,1.6463,1.6462,1.6495,1.6498,1.6502,1.6535,1.6513,1.6514,1.6516,1.6589,1.659,1.6591,0,0,0,0,0,0,1.6385,1.6391,1.6442,1.6419,1.6426,1.644,1.6454,1.6456,1.6465,1.648,1.6482,1.6469,1.6494,1.6499,1.6524,1.6536,1.6515,1.6517,1.6588,1.659,1.6591,1.66,0,0,0,0,0,0,1.6383,1.639,1.64,1.642,1.6427,1.6464,1.6455,1.6457,1.6469,1.6468,1.6486,1.6489,1.6494,1.6521,1.6526,1.6538,1.6519,1.6587,1.6589,1.659,1.6599,1.6602,1.6604,0,0,0,0,0,1.638,1.64,1.6401,1.6407,1.644,1.6465,1.6469,1.6476,1.647,1.648,1.649,1.6488,1.6534,1.6523,1.6529,1.6542,1.6587,1.6589,1.659,1.6598,1.6601,1.6604,0,0,0,0,0,0,1.6381,1.6403,1.6404,1.6431,1.6446,1.6465,1.6478,1.6479,1.6496,1.6494,1.6501,1.6505,1.653,1.6539,1.6526,1.6569,1.6559,1.6562,1.6563,1.6567,1.6569,1.6567,1.652,0,0,0,0,0,1.6384,1.6403,1.6421,1.6444,1.6451,1.6464,1.6474,1.6479,1.6494,1.65,1.6512,1.6526,1.6544,1.6556,1.6573,1.66,1.6605,1.6612,1.6615,1.6617,1.662,1.6636,1.6641,1.6597,1.6597,1.6597,0,0,1.6391,1.6406,1.6417,1.6444,1.6457,1.6476,1.6469,1.6489,1.6503,1.6503,1.6528,1.6537,1.6553,1.658,1.6592,1.6588,1.6633,1.6619,1.6621,1.6622,1.6639,1.6643,1.6647,1.6599,1.6598,1.6598,0,0,1.6415,1.6427,1.6448,1.6461,1.6481,1.6489,1.6494,1.6513,1.6519,1.6544,1.6545,1.6562,1.6592,1.6605,1.6615,1.6645,1.6644,1.665,1.6664,1.668,1.6683,1.6686,1.6698,1.6703,1.6652,1.6652,1.6652,0,1.6421,1.6451,1.6459,1.648,1.6492,1.6494,1.6516,1.6528,1.6551,1.6559,1.6554,1.6593,1.6604,1.6635,1.6643,1.665,1.6657,1.6648,1.6682,1.6685,1.6688,1.67,1.6704,1.6653,1.6653,1.6653,1.6653,0,1.6458,1.6479,1.6493,1.6518,1.6532,1.6553,1.6564,1.6577,1.658,1.6589,1.6615,1.6629,1.665,1.6657,1.6659,1.6688,1.6685,1.6681,1.6671,1.6693,1.6704,1.6709,1.6654,1.6654,1.6654,1.6653,0,0,1.6483,1.6513,1.6518,1.653,1.6552,1.6568,1.6589,1.6611,1.6623,1.6639,1.6657,1.6684,1.6681,1.6692,1.6696,1.671,1.6735,1.6705,1.6705,1.6711,1.677,1.6774,1.6779,1.6735,1.6736,1.6736,1.6769,0,1.6509,1.6549,1.6558,1.6591,1.6611,1.6614,1.6633,1.6648,1.6657,1.6675,1.6684,1.6704,1.6697,1.6705,1.6719,1.6729,1.6747,1.6727,1.6753,1.6753,1.675,1.6784,1.6788,1.6818,1.6773,1.6774,1.6774,0,1.6546,1.6565,1.6602,1.6623,1.6632,1.6648,1.667,1.6687,1.6705,1.671,1.6724,1.6727,1.675,1.6738,1.677,1.6756,1.6767,1.6774,1.6775,1.6778,1.6766,1.679,1.6828,1.6833,1.6781,1.678,1.678,0,1.6562,1.6597,1.6624,1.6633,1.6658,1.6671,1.6681,1.6699,1.6712,1.673,1.6739,1.6759,1.677,1.6786,1.6794,1.6785,1.6826,1.6815,1.6831,1.6831,1.684,1.684,1.6882,1.6845,1.6845,1.6845,1.6845,0,1.6592,1.6614,1.6632,1.6648,1.6674,1.6683,1.6708,1.6718,1.6734,1.6753,1.6756,1.6773,1.6783,1.6801,1.6808,1.6834,1.6838,1.6844,1.6845,1.6844,1.6844,1.6852,1.6851,1.6846,1.6846,1.6846,1.6846,0,1.6614,1.6627,1.6657,1.6679,1.6685,1.6703,1.6721,1.6738,1.6747,1.6771,1.6777,1.6791,1.6813,1.6823,1.685,1.6855,1.6885,1.6884,1.6879,1.688,1.6897,1.6896,1.6947,1.6954,1.6911,1.6912,1.6912,0,1.6633,1.6651,1.6676,1.6689,1.6701,1.6722,1.6736,1.6746,1.676,1.6783,1.6797,1.682,1.6838,1.6874,1.6886,1.6907,1.6908,1.6925,1.6911,1.691,1.691,1.691,1.6912,1.6927,1.6928,1.6928,1.6928,0,1.6666,1.6672,1.6692,1.6716,1.6733,1.6751,1.6769,1.678,1.6793,1.6808,1.6832,1.6847,1.6876,1.6899,1.6921,1.6931,1.6932,1.6932,1.6938,1.6937,1.6934,1.6938,1.6887,1.6931,1.6931,1.6931,1.6931,1.693,1.6688,1.6705,1.6726,1.6749,1.6764,1.6781,1.6798,1.6811,1.6831,1.6856,1.686,1.6886,1.6904,1.6935,1.6946,1.6966,1.6962,1.6969,1.6971,1.6973,1.6975,1.693,1.697,1.697,1.697,1.697,1.697,0,1.6722,1.6736,1.6758,1.6784,1.6803,1.6803,1.6823,1.6839,1.6862,1.6879,1.6899,1.6926,1.6949,1.6964,1.6987,1.7,1.7001,1.7006,1.7005,1.7008,1.6977,1.6971,1.7005,1.7005,1.7005,1.7005,1.7005,1.7005,1.6742,1.6772,1.678,1.6817,1.683,1.6856,1.6868,1.6884,1.6899,1.693,1.695,1.696,1.6977,1.7001,1.7022,1.7026,1.7034,1.704,1.7043,1.7014,1.701,1.7007,1.7001,1.7041,1.7041,1.7074,1.7074,1.7074]}]]